Location: Mannheim
(49.4880°N, 8.4650°E)
Time: 21:03:25
(UTC+02:00)

ISS - Pass Details

Date: 25 May 2023
Orbit: 412 x 419 km, 51.6° (Epoch: 28 May)

Event Time Altitude Azimuth Distance (km) Brightness Sun altitude
Rises 00:23:31 0° 283° (WNW) 2,359 0.4 -18.4°
Reaches altitude 10° 00:26:12 10° 260° (W) 1,494 -0.9 -18.5°
Enters shadow 00:27:01 13° 247° (WSW) 1,317 -1.3 -18.6°
